When you browse on this site, cookies collect data to enhance your experience and personalize the content and advertising you see.
Visit our Privacy Policy to learn more. By continuing to use the site, you agree to this use of cookies and data.
  • In Hungary
  • List of Countries
  • For 7 days
  • Water Temperature
  • Weather Map
  • News
  • Weather Widgets
  • user-avatar
    Login

    Hourly Weather Mayakum

    Today, 8 December, Sunday

    Time Temperature Precipitation Wind Pressure Humidity
    00:00 +2°C° 0 mm 2 mps 755 mmHg 47%
    01:00 +2°C° 0 mm 2 mps 754 mmHg 56%
    02:00 +2°C° 0 mm 2 mps 754 mmHg 64%
    03:00 +2°C° 0 mm 2 mps 753 mmHg 63%
    04:00 +2°C° 0 mm 2 mps 753 mmHg 63%
    05:00 +2°C° 0 mm 2 mps 753 mmHg 64%
    06:00 +2°C° 0 mm 2 mps 753 mmHg 61%
    07:00 +2°C° 0 mm 2 mps 753 mmHg 58%
    08:00 +2°C° 0 mm 2 mps 753 mmHg 56%
    09:00 +4°C° 0 mm 2 mps 753 mmHg 50%
    10:00 +7°C° 0 mm 3 mps 752 mmHg 44%
    11:00 +9°C° 0 mm 3 mps 752 mmHg 38%
    12:00 +10°C° 0 mm 3 mps 752 mmHg 35%
    13:00 +12°C° 0 mm 3 mps 751 mmHg 31%
    14:00 +13°C° 0 mm 4 mps 750 mmHg 28%
    15:00 +12°C° 0 mm 4 mps 750 mmHg 31%
    16:00 +10°C° 0 mm 4 mps 749 mmHg 35%
    17:00 +8°C° 0 mm 4 mps 749 mmHg 38%
    18:00 +8°C° 0 mm 4 mps 749 mmHg 40%
    19:00 +7°C° 0 mm 5 mps 749 mmHg 41%
    20:00 +7°C° 0 mm 5 mps 748 mmHg 43%
    21:00 +6°C° 0 mm 5 mps 748 mmHg 44%
    22:00 +6°C° 0 mm 5 mps 748 mmHg 45%
    23:00 +6°C° 0 mm 4 mps 747 mmHg 46%

    Tomorrow, 9 December, Monday

    Time Temperature Precipitation Wind Pressure Humidity
    00:00 +5°C° 0 mm 4 mps 747 mmHg 48%
    01:00 +5°C° 0 mm 4 mps 746 mmHg 50%
    02:00 +4°C° 0 mm 4 mps 746 mmHg 52%
    03:00 +4°C° 0 mm 4 mps 746 mmHg 53%
    04:00 +4°C° 0 mm 4 mps 746 mmHg 55%
    05:00 +3°C° 0 mm 4 mps 745 mmHg 57%
    06:00 +3°C° 0 mm 3 mps 745 mmHg 58%
    07:00 +3°C° 0 mm 3 mps 745 mmHg 59%
    08:00 +3°C° 0 mm 3 mps 745 mmHg 60%
    09:00 +5°C° 0 mm 3 mps 745 mmHg 53%
    10:00 +8°C° 0 mm 3 mps 745 mmHg 47%
    11:00 +10°C° 0 mm 3 mps 745 mmHg 41%
    12:00 +12°C° 0 mm 2 mps 745 mmHg 38%
    13:00 +13°C° 0 mm 2 mps 744 mmHg 36%
    14:00 +14°C° 0 mm 1 mps 744 mmHg 34%
    15:00 +12°C° 0 mm 1 mps 744 mmHg 39%
    16:00 +11°C° 0 mm 1 mps 744 mmHg 43%
    17:00 +8°C° 0 mm 0 mps 744 mmHg 48%
    18:00 +8°C° 0 mm 0 mps 744 mmHg 49%
    19:00 +7°C° 0 mm 0 mps 745 mmHg 51%
    20:00 +7°C° 0 mm 0 mps 745 mmHg 52%
    21:00 +8°C° 0 mm 1 mps 745 mmHg 51%
    22:00 +9°C° 0 mm 1 mps 745 mmHg 50%
    23:00 +8°C° 0 mm 2 mps 745 mmHg 49%

    Day after tomorrow, 10 December, Tuesday

    Time Temperature Precipitation Wind Pressure Humidity
    00:00 +8°C° 0 mm 2 mps 745 mmHg 48%
    01:00 +9°C° 0 mm 3 mps 745 mmHg 47%
    02:00 +9°C° 0 mm 3 mps 745 mmHg 46%
    03:00 +9°C° 0 mm 3 mps 745 mmHg 46%
    04:00 +9°C° 0 mm 2 mps 745 mmHg 46%
    05:00 +9°C° 0 mm 2 mps 746 mmHg 47%
    06:00 +9°C° 0 mm 3 mps 746 mmHg 48%
    07:00 +9°C° 0 mm 3 mps 746 mmHg 49%
    08:00 +7°C° 0 mm 4 mps 746 mmHg 50%
    09:00 +10°C° 0 mm 4 mps 747 mmHg 47%
    10:00 +12°C° 0 mm 4 mps 747 mmHg 43%
    11:00 +13°C° 0 mm 4 mps 747 mmHg 39%
    12:00 +14°C° 0 mm 4 mps 747 mmHg 41%
    13:00 +14°C° 0 mm 4 mps 747 mmHg 43%
    14:00 +15°C° 0 mm 4 mps 747 mmHg 45%
    15:00 +14°C° 0 mm 3 mps 747 mmHg 50%
    16:00 +12°C° 0 mm 3 mps 747 mmHg 55%
    17:00 +12°C° 0 mm 2 mps 747 mmHg 61%
    18:00 +10°C° 0 mm 2 mps 747 mmHg 65%
    19:00 +9°C° 0 mm 2 mps 747 mmHg 69%
    20:00 +8°C° 0 mm 2 mps 747 mmHg 73%
    21:00 +7°C° 0 mm 2 mps 747 mmHg 76%
    22:00 +7°C° 0 mm 2 mps 747 mmHg 80%
    23:00 +7°C° 0 mm 1 mps 747 mmHg 83%

    11 December, Wednesday

    Time Temperature Precipitation Wind Pressure Humidity
    00:00 +7°C° 0 mm 1 mps 747 mmHg 83%
    01:00 +7°C° 0 mm 1 mps 747 mmHg 83%
    02:00 +7°C° 0 mm 1 mps 747 mmHg 84%
    03:00 +7°C° 0 mm 1 mps 747 mmHg 82%
    04:00 +6°C° 0 mm 0 mps 747 mmHg 81%
    05:00 +7°C° 0 mm 0 mps 747 mmHg 80%
    06:00 +7°C° 0 mm 1 mps 747 mmHg 81%
    07:00 +7°C° 0 mm 1 mps 747 mmHg 81%
    08:00 +6°C° 0 mm 2 mps 747 mmHg 82%
    09:00 +8°C° 0 mm 2 mps 747 mmHg 73%
    10:00 +10°C° 0 mm 1 mps 747 mmHg 65%
    11:00 +12°C° 0 mm 1 mps 747 mmHg 57%
    12:00 +13°C° 0 mm 1 mps 747 mmHg 53%
    13:00 +13°C° 0 mm 1 mps 746 mmHg 50%
    14:00 +14°C° 0 mm 1 mps 746 mmHg 46%
    15:00 +12°C° 0 mm 1 mps 745 mmHg 51%
    16:00 +11°C° 0 mm 1 mps 745 mmHg 57%
    17:00 +10°C° 0 mm 1 mps 745 mmHg 62%
    18:00 +10°C° 0 mm 1 mps 745 mmHg 62%
    19:00 +9°C° 0 mm 2 mps 745 mmHg 63%
    20:00 +9°C° 0 mm 2 mps 745 mmHg 63%
    21:00 +9°C° 0 mm 2 mps 745 mmHg 63%
    22:00 +9°C° 0 mm 2 mps 745 mmHg 63%
    23:00 +9°C° 0 mm 2 mps 745 mmHg 63%

    12 December, Thursday

    Time Temperature Precipitation Wind Pressure Humidity
    00:00 +8°C° 0 mm 2 mps 744 mmHg 65%
    01:00 +8°C° 0 mm 2 mps 744 mmHg 67%
    02:00 +7°C° 0 mm 2 mps 744 mmHg 70%
    03:00 +7°C° 0 mm 2 mps 744 mmHg 70%
    04:00 +7°C° 0 mm 2 mps 744 mmHg 70%
    05:00 +7°C° 0 mm 2 mps 744 mmHg 70%
    06:00 +7°C° 0.1 mm 2 mps 744 mmHg 70%
    07:00 +7°C° 0.1 mm 2 mps 744 mmHg 70%
    08:00 +7°C° 0.1 mm 2 mps 744 mmHg 71%
    09:00 +8°C° 0.2 mm 2 mps 744 mmHg 70%
    10:00 +8°C° 0.2 mm 3 mps 744 mmHg 69%
    11:00 +9°C° 0.2 mm 3 mps 745 mmHg 69%
    12:00 +9°C° 0.1 mm 3 mps 744 mmHg 68%
    13:00 +10°C° 0.1 mm 2 mps 744 mmHg 67%
    14:00 +10°C° 0.1 mm 2 mps 744 mmHg 66%
    15:00 +10°C° 0 mm 2 mps 744 mmHg 69%
    16:00 +10°C° 0 mm 1 mps 744 mmHg 72%
    17:00 +9°C° 0 mm 1 mps 744 mmHg 75%
    18:00 +9°C° 0 mm 1 mps 744 mmHg 76%
    19:00 +9°C° 0 mm 1 mps 744 mmHg 76%
    20:00 +8°C° 0 mm 1 mps 744 mmHg 76%
    21:00 +8°C° 0 mm 1 mps 745 mmHg 75%
    22:00 +7°C° 0 mm 2 mps 745 mmHg 73%
    23:00 +7°C° 0 mm 2 mps 745 mmHg 72%

    13 December, Friday

    Time Temperature Precipitation Wind Pressure Humidity
    00:00 +7°C° 0 mm 2 mps 745 mmHg 73%
    01:00 +7°C° 0 mm 1 mps 745 mmHg 75%
    02:00 +7°C° 0 mm 1 mps 745 mmHg 76%
    03:00 +7°C° 0 mm 1 mps 745 mmHg 76%
    04:00 +6°C° 0 mm 2 mps 745 mmHg 76%
    05:00 +6°C° 0 mm 2 mps 745 mmHg 75%
    06:00 +6°C° 0 mm 2 mps 745 mmHg 77%
    07:00 +6°C° 0 mm 2 mps 746 mmHg 79%
    08:00 +6°C° 0 mm 2 mps 746 mmHg 81%
    09:00 +6°C° 0 mm 2 mps 746 mmHg 77%
    10:00 +8°C° 0 mm 1 mps 746 mmHg 73%
    11:00 +9°C° 0 mm 1 mps 747 mmHg 69%
    12:00 +10°C° 0 mm 1 mps 746 mmHg 65%
    13:00 +11°C° 0 mm 1 mps 746 mmHg 61%
    14:00 +11°C° 0 mm 1 mps 746 mmHg 57%
    15:00 +11°C° 0 mm 1 mps 746 mmHg 60%
    16:00 +10°C° 0 mm 1 mps 746 mmHg 63%
    17:00 +8°C° 0 mm 2 mps 746 mmHg 66%
    18:00 +8°C° 0 mm 2 mps 746 mmHg 68%
    19:00 +7°C° 0 mm 2 mps 747 mmHg 71%
    20:00 +7°C° 0 mm 3 mps 747 mmHg 73%
    21:00 +7°C° 0 mm 3 mps 747 mmHg 75%
    22:00 +5°C° 0 mm 3 mps 747 mmHg 77%
    23:00 +5°C° 0 mm 3 mps 747 mmHg 79%
    Show more